Overview Statistics Trail Chart Weather Telemetry Raw packets
 

This is the latest recevied weather packets stored in our database for station/object W0AKY-13. If no packets are shown the sender has not sent any weather packets the latest 10 day(s).

<< 79 80 81 82 83 84 85 >>
Time Temp. Humidity Pressure Rain* Wind** Luminosity Snow
1787930193 25.56° C 69% 1022.7 hPa 0 mm - 334 W/m² -
1787929892 25° C 70% 1022.4 hPa 0 mm - 321 W/m² -
1787929592 25° C 70% 1022.6 hPa 0 mm - 310 W/m² -
1787929291 25° C 71% 1022.4 hPa 0 mm - 298 W/m² -
1787928989 24.44° C 73% 1022.7 hPa 0 mm - 286 W/m² -
1787928691 24.44° C 78% 1022.7 hPa 0 mm - 274 W/m² -
1787928383 23.89° C 77% 1022.6 hPa 0 mm - 259 W/m² -
1787928082 22.78° C 81% 1022.3 hPa 0 mm - 247 W/m² -
1787927780 22.22° C 82% 1022.8 hPa 0 mm - 85 W/m² -
1787927476 21.67° C 84% 1022.4 hPa 0 mm - 37 W/m² -
1787927171 21.67° C 84% 1022.7 hPa 0 mm - 32 W/m² -
1787926866 21.67° C 86% 1022.6 hPa 0 mm - 33 W/m² -
1787926561 21.11° C 88% 1022.4 hPa 0 mm - 33 W/m² -
1787926259 21.11° C 88% 1022.5 hPa 0 mm - 31 W/m² -
1787925954 20.56° C 90% 1022.4 hPa 0 mm - 31 W/m² -
1787925649 20° C 91% 1022.5 hPa 0 mm - 32 W/m² -
1787925344 20° C 93% 1022.3 hPa 0 mm - 30 W/m² -
1787925043 19.44° C 96% 1022.5 hPa 0 mm - 29 W/m² -
1787924738 19.44° C 97% 1022.4 hPa 0 mm - 28 W/m² -
1787924437 18.89° C 98% 1022.3 hPa 0 mm - 28 W/m² -
1787924133 18.89° C 99% 1022.5 hPa 0 mm - 28 W/m² -
1787923827 18.89° C 99% 1022.4 hPa 0 mm - 27 W/m² -
1787923527 18.89° C 99% 1022.5 hPa 0 mm - 26 W/m² -
1787923223 18.33° C 99% 1022.5 hPa 0 mm - 25 W/m² -
1787922919 18.33° C 99% 1022.7 hPa 0 mm - 24 W/m² -

* Rain latest hour (hover to see other rain measurements)
** Current wind speed in m/s (hover to see current wind gust speed)